period_start,C,m1,H,J0,J1,J2,J3,J4,J5,JA,JB,JC,JD,JJ,JK,JN,#
2016-03-04 00:01:58,0.05,0.69,0.00,19.77,24.23,27.90,14.86,48.98,1024.43,2046.98,3293.05,2965.21,3362.20,600.03,607.29,10.80,0000 0000 0000 0000 000000
2016-03-04 00:06:59,0.05,0.69,0.00,19.79,24.25,27.90,14.95,49.02,1024.43,2046.97,3292.01,2964.59,3361.43,600.09,607.28,10.85,0000 0000 0000 0000 000000
2016-03-04 00:12:01,0.04,0.69,0.00,19.79,24.26,27.99,14.87,48.92,1024.43,2046.97,3291.00,2963.89,3360.62,600.18,607.37,10.90,0000 0000 0000 0000 000000
2016-03-04 00:17:02,0.05,0.70,0.00,19.81,24.27,27.96,14.81,49.03,1024.43,2046.95,3289.95,2963.04,3359.71,599.88,607.15,10.95,0000 0000 0000 0000 000000
2016-03-04 00:22:03,0.04,0.70,0.00,19.82,24.29,27.97,14.93,49.01,1024.43,2046.91,3288.92,2962.25,3358.87,600.24,607.26,11.00,0000 0000 0000 0000 000000
2016-03-04 00:27:05,0.03,0.70,0.00,19.85,24.30,28.02,14.89,49.13,1024.43,2046.65,3287.87,2961.51,3357.95,599.63,606.73,11.05,0000 0000 0000 0000 000000
2016-03-04 00:32:06,0.01,0.70,0.00,19.89,24.32,28.02,14.84,49.02,1024.44,2046.40,3286.85,2960.82,3357.04,600.04,607.04,11.10,0000 0000 0000 0000 000000
2016-03-04 00:37:07,0.03,0.70,0.00,19.91,24.34,28.02,14.84,48.99,1024.44,2046.10,3285.74,2960.02,3356.15,599.89,606.90,11.15,0000 0000 0000 0000 000000
2016-03-04 00:42:09,0.05,0.71,0.00,19.92,24.35,28.08,14.84,49.06,1024.43,2046.04,3284.68,2959.19,3355.21,599.66,606.50,11.20,0000 0000 0000 0000 000000
2016-03-04 00:47:10,0.05,0.71,0.00,19.97,24.37,28.08,14.90,49.12,1024.38,2046.02,3283.66,2958.52,3354.38,599.97,606.78,11.25,0000 0000 0000 0000 000000
2016-03-04 00:52:12,0.04,0.71,0.00,19.98,24.39,28.13,14.84,49.17,1023.99,2046.01,3282.65,2957.82,3353.50,599.86,606.42,11.30,0000 0000 0000 0000 000000
2016-03-04 00:57:13,0.05,0.71,0.00,19.99,24.40,28.14,14.78,49.13,1023.95,2046.00,3281.54,2956.97,3352.59,599.59,606.24,11.35,0000 0000 0000 0000 000000
2016-03-04 01:02:14,0.05,0.72,0.00,20.01,24.42,28.13,14.86,49.09,1023.95,2046.00,3280.50,2956.13,3351.78,600.03,606.47,11.40,0000 0000 0000 0000 000000
2016-03-04 01:07:16,0.04,0.72,0.00,20.00,24.43,28.19,14.82,49.17,1024.05,2046.00,3279.51,2955.51,3350.96,600.22,606.75,11.45,0000 0000 0000 0000 000000
2016-03-04 01:12:17,0.04,0.72,0.00,20.04,24.45,28.17,14.86,49.20,1024.26,2046.00,3278.56,2954.87,3350.08,600.07,606.65,11.50,0000 0000 0000 0000 000000
2016-03-04 01:17:18,0.05,0.72,0.00,20.05,24.46,28.19,14.86,49.37,1024.22,2046.00,3277.54,2954.05,3349.23,599.71,606.28,11.55,0000 0000 0000 0000 000000
2016-03-04 01:22:20,0.05,0.73,0.00,20.07,24.47,28.18,14.79,49.30,1024.15,2045.98,3276.40,2953.21,3348.35,599.97,606.41,11.60,0000 0000 0000 0000 000000
2016-03-04 01:27:21,0.05,0.73,0.00,20.08,24.49,28.21,14.83,49.25,1024.19,2045.97,3275.40,2952.48,3347.47,599.74,606.20,11.65,0000 0000 0000 0000 000000
2016-03-04 01:32:22,0.04,0.73,0.00,20.07,24.50,28.22,14.79,49.22,1024.35,2045.98,3274.39,2951.90,3346.71,599.85,606.42,11.70,0000 0000 0000 0000 000000
2016-03-04 01:37:23,0.04,0.73,0.00,20.05,24.51,28.21,14.82,49.32,1024.41,2045.92,3273.34,2951.01,3345.79,600.25,606.78,11.75,0000 0000 0000 0000 000000
2016-03-04 01:42:24,0.03,0.74,0.00,20.06,24.52,28.23,14.81,49.34,1024.43,2045.75,3272.29,2950.11,3344.87,599.93,606.55,11.80,0000 0000 0000 0000 000000
2016-03-04 01:47:25,0.04,0.74,0.00,20.06,24.53,28.21,14.88,49.47,1024.43,2045.47,3271.18,2949.32,3344.03,599.92,606.57,11.85,0000 0000 0000 0000 000000
2016-03-04 01:52:27,0.03,0.74,0.00,20.05,24.55,28.20,14.86,49.32,1024.43,2045.37,3270.22,2948.77,3343.16,599.98,606.54,11.90,0000 0000 0000 0000 000000
2016-03-04 01:57:28,0.05,0.74,0.00,20.03,24.55,28.21,14.89,49.29,1024.43,2045.38,3269.17,2948.03,3342.42,600.38,606.99,11.95,0000 0000 0000 0000 000000
2016-03-04 02:02:29,0.04,0.74,0.00,20.01,24.57,28.20,14.82,49.46,1024.43,2045.30,3268.15,2947.21,3341.51,600.05,606.78,12.00,0000 0000 0000 0000 000000
2016-03-04 02:07:30,0.04,0.75,0.00,20.00,24.57,28.25,14.85,49.27,1024.74,2045.16,3267.12,2946.30,3340.59,599.83,606.77,12.06,0000 0000 0000 0000 000000
2016-03-04 02:12:32,0.04,0.75,0.00,19.99,24.57,28.22,14.83,49.48,1024.89,2045.16,3266.20,2945.70,3339.80,599.85,606.92,12.11,0000 0000 0000 0000 000000
2016-03-04 02:17:33,0.03,0.75,0.00,20.00,24.57,28.25,14.94,49.38,1024.92,2045.14,3265.22,2945.01,3339.03,599.86,606.97,12.16,0000 0000 0000 0000 000000
2016-03-04 02:22:34,0.05,0.75,0.00,20.02,24.58,28.27,14.85,49.20,1024.92,2045.13,3264.32,2944.31,3338.21,599.71,606.80,12.21,0000 0000 0000 0000 000000
2016-03-04 02:27:36,0.03,0.75,0.00,20.03,24.59,28.26,14.91,49.33,1024.92,2045.13,3263.56,2943.97,3337.59,600.01,607.00,12.26,0000 0000 0000 0000 000000
2016-03-04 02:32:37,0.03,0.76,0.00,20.02,24.60,28.28,14.90,49.42,1024.92,2045.11,3262.86,2943.17,3336.87,600.07,607.09,12.31,0000 0000 0000 0000 000000
2016-03-04 02:37:38,0.04,0.76,0.00,20.04,24.60,28.26,14.90,49.38,1024.92,2045.05,3261.94,2942.63,3336.05,600.17,607.07,12.36,0000 0000 0000 0000 000000
2016-03-04 02:42:39,0.04,0.76,0.00,20.03,24.60,28.21,14.82,49.30,1024.92,2045.07,3261.07,2942.01,3335.38,599.88,606.88,12.41,0000 0000 0000 0000 000000
2016-03-04 02:47:41,0.04,0.76,0.00,20.01,24.60,28.24,14.85,49.37,1024.92,2045.07,3260.20,2941.42,3334.77,600.09,607.09,12.46,0000 0000 0000 0000 000000
2016-03-04 02:52:42,0.03,0.77,0.00,20.02,24.61,28.29,14.88,49.25,1024.95,2045.04,3259.30,2940.89,3334.01,600.00,607.07,12.51,0000 0000 0000 0000 000000
2016-03-04 02:57:43,0.04,0.77,0.00,20.02,24.62,28.29,14.89,49.41,1024.97,2045.03,3258.62,2940.09,3333.20,600.09,607.09,12.56,0000 0000 0000 0000 000000
2016-03-04 03:02:44,0.04,0.77,0.00,20.03,24.62,28.25,14.91,49.46,1024.99,2045.01,3257.72,2939.68,3332.56,600.20,607.21,12.61,0000 0000 0000 0000 000000
2016-03-04 03:07:45,0.02,0.77,0.00,20.04,24.62,28.28,14.82,49.40,1025.30,2045.01,3256.93,2939.02,3331.99,599.95,607.14,12.66,0000 0000 0000 0000 000000
2016-03-04 03:12:47,0.05,0.77,0.00,20.03,24.62,28.23,15.03,49.38,1025.36,2045.03,3256.08,2938.44,3331.18,600.45,607.69,12.71,0000 0000 0000 0000 000000
2016-03-04 03:17:48,0.03,0.78,0.00,20.04,24.62,28.22,14.87,49.46,1025.39,2045.02,3255.21,2937.93,3330.53,599.87,607.13,12.76,0000 0000 0000 0000 000000
2016-03-04 03:22:49,0.04,0.78,0.00,20.06,24.63,28.27,14.97,49.57,1025.36,2045.01,3254.34,2937.15,3329.97,599.98,607.28,12.81,0000 0000 0000 0000 000000
2016-03-04 03:27:51,0.03,0.78,0.00,20.07,24.64,28.25,14.87,49.51,1025.40,2045.02,3253.57,2936.86,3329.15,600.10,607.26,12.86,0000 0000 0000 0000 000000
2016-03-04 03:32:52,0.03,0.78,0.00,20.07,24.64,28.27,14.83,49.58,1025.40,2045.01,3252.84,2936.06,3328.67,599.78,606.97,12.91,0000 0000 0000 0000 000000
2016-03-04 03:37:53,0.03,0.78,0.00,20.08,24.65,28.25,14.89,49.45,1025.40,2045.00,3252.01,2935.66,3327.98,600.06,607.33,12.96,0000 0000 0000 0000 000000
2016-03-04 03:42:55,0.04,0.79,0.00,20.11,24.65,28.26,14.83,49.38,1025.40,2045.00,3251.12,2935.01,3327.15,600.00,607.08,13.01,0000 0000 0000 0000 000000
2016-03-04 03:47:56,0.05,0.79,0.00,20.10,24.65,28.25,14.90,49.25,1025.40,2045.00,3250.20,2934.31,3326.71,600.33,607.47,13.06,0000 0000 0000 0000 000000
2016-03-04 03:52:57,0.02,0.79,0.00,20.12,24.67,28.26,14.84,49.42,1025.40,2045.00,3249.48,2933.95,3326.02,600.07,607.17,13.11,0000 0000 0000 0000 000000
2016-03-04 03:57:58,0.05,0.79,0.00,20.13,24.67,28.28,14.83,49.66,1025.41,2045.00,3248.71,2933.20,3325.35,599.89,607.09,13.16,0000 0000 0000 0000 000000
2016-03-04 04:03:00,0.04,0.79,0.00,20.12,24.67,28.29,14.88,49.74,1025.42,2045.00,3247.84,2932.67,3324.64,600.03,607.13,13.21,0000 0000 0000 0000 000000
2016-03-04 04:08:01,0.02,0.80,0.00,20.12,24.67,28.32,14.84,49.52,1025.58,2045.00,3246.99,2932.01,3323.98,599.80,606.96,13.26,0000 0000 0000 0000 000000
2016-03-04 04:13:02,0.05,0.80,0.00,20.13,24.67,28.31,14.87,49.57,1025.88,2045.00,3246.11,2931.39,3323.17,599.94,607.28,13.31,0000 0000 0000 0000 000000
2016-03-04 04:18:04,0.03,0.80,0.00,20.14,24.69,28.33,14.98,49.59,1025.89,2045.00,3245.31,2930.94,3322.59,600.32,607.56,13.36,0000 0000 0000 0000 000000
2016-03-04 04:23:05,0.04,0.80,0.00,20.17,24.70,28.32,14.83,49.47,1025.89,2044.99,3244.55,2930.14,3321.92,599.87,607.15,13.41,0000 0000 0000 0000 000000
2016-03-04 04:28:07,0.02,0.80,0.00,20.18,24.70,28.33,14.81,49.47,1025.89,2044.99,3243.91,2929.91,3321.16,599.90,607.19,13.46,0000 0000 0000 0000 000000
2016-03-04 04:33:08,0.04,0.81,0.00,20.17,24.70,28.31,14.87,49.39,1025.89,2044.99,3243.07,2929.11,3320.82,599.90,607.18,13.51,0000 0000 0000 0000 000000
2016-03-04 04:38:09,0.05,0.81,0.00,20.18,24.71,28.35,14.91,49.39,1025.90,2044.99,3242.26,2928.49,3320.03,600.17,607.50,13.56,0000 0000 0000 0000 000000
2016-03-04 04:43:10,0.03,0.81,0.00,20.18,24.72,28.38,14.87,49.33,1025.92,2044.99,3241.64,2928.01,3319.29,600.15,607.42,13.61,0000 0000 0000 0000 000000
2016-03-04 04:48:12,0.03,0.81,0.00,20.20,24.72,28.39,14.87,49.42,1025.97,2044.98,3240.87,2927.61,3318.75,600.04,607.30,13.66,0000 0000 0000 0000 000000
2016-03-04 04:53:13,0.03,0.81,0.00,20.20,24.73,28.42,14.88,49.45,1026.12,2044.98,3240.05,2927.02,3318.04,600.15,607.42,13.71,0000 0000 0000 0000 000000
2016-03-04 04:58:14,0.05,0.82,0.00,20.21,24.75,28.39,14.83,49.44,1026.24,2044.98,3239.37,2926.44,3317.44,599.94,607.39,13.76,0000 0000 0000 0000 000000
2016-03-04 05:03:15,0.01,0.82,0.00,20.21,24.75,28.39,14.86,49.23,1026.35,2044.99,3238.70,2926.00,3316.99,600.11,607.58,13.81,0000 0000 0000 0000 000000
2016-03-04 05:08:17,0.04,0.82,0.00,20.23,24.76,28.43,14.90,49.36,1026.37,2044.97,3237.94,2925.37,3316.21,600.00,607.46,13.86,0000 0000 0000 0000 000000
2016-03-04 05:13:18,0.02,0.82,0.00,20.25,24.77,28.44,14.82,49.52,1026.37,2044.96,3237.08,2924.98,3315.76,599.69,607.09,13.91,0000 0000 0000 0000 000000
2016-03-04 05:18:19,0.05,0.82,0.00,20.28,24.78,28.43,14.89,49.50,1026.38,2044.94,3236.32,2924.21,3314.94,600.15,607.48,13.96,0000 0000 0000 0000 000000
2016-03-04 05:23:20,0.01,0.82,0.00,20.27,24.80,28.43,14.94,49.40,1026.40,2044.69,3235.58,2923.78,3314.10,600.29,607.65,14.01,0000 0000 0000 0000 000000
2016-03-04 05:28:21,0.02,0.83,0.00,20.30,24.80,28.47,14.88,49.46,1026.56,2044.56,3234.80,2923.05,3313.53,600.15,607.45,14.06,0000 0000 0000 0000 000000
2016-03-04 05:33:23,0.02,0.83,0.00,20.34,24.82,28.49,14.92,49.32,1026.78,2044.23,3233.97,2922.48,3312.90,600.41,608.01,14.11,0000 0000 0000 0000 000000
2016-03-04 05:38:24,0.02,0.83,0.00,20.36,24.82,28.46,14.78,49.20,1026.87,2044.13,3233.09,2921.97,3312.08,599.76,607.18,14.16,0000 0000 0000 0000 000000
2016-03-04 05:43:25,0.05,0.83,0.00,20.41,24.85,28.47,14.75,49.18,1026.87,2044.08,3232.16,2921.19,3311.48,600.04,607.42,14.21,0000 0000 0000 0000 000000
2016-03-04 05:48:26,0.03,0.83,0.00,20.44,24.86,28.51,14.96,49.29,1026.87,2044.04,3231.35,2920.77,3310.76,600.24,607.48,14.26,0000 0000 0000 0000 000000
2016-03-04 05:53:28,0.03,0.83,0.00,20.44,24.87,28.49,14.88,49.31,1026.87,2044.01,3230.62,2920.04,3310.02,600.32,607.58,14.32,0000 0000 0000 0000 000000
2016-03-04 05:58:29,0.05,0.84,0.00,20.45,24.89,28.53,14.79,49.23,1026.87,2044.00,3229.79,2919.48,3309.21,599.95,607.27,14.37,0000 0000 0000 0000 000000
2016-03-04 06:03:30,0.02,0.84,0.00,20.47,24.91,28.54,14.90,49.24,1026.89,2044.00,3228.95,2918.97,3308.57,600.16,607.31,14.42,0000 0000 0000 0000 000000
2016-03-04 06:08:32,0.04,0.84,0.00,20.51,24.92,28.59,14.85,49.23,1027.13,2044.00,3228.09,2918.20,3307.89,599.92,607.17,14.47,0000 0000 0000 0000 000000
2016-03-04 06:13:33,0.04,0.84,0.00,20.52,24.95,28.60,14.87,49.31,1027.34,2043.99,3227.21,2917.64,3307.07,600.07,607.44,14.52,0000 0000 0000 0000 000000
2016-03-04 06:18:34,0.03,0.85,0.00,20.57,24.96,28.64,14.76,49.23,1027.36,2043.99,3226.42,2917.01,3306.38,600.01,607.32,14.57,0000 0000 0000 0000 000000
2016-03-04 06:23:35,0.04,0.85,0.00,20.59,24.97,28.62,14.88,49.03,1027.36,2043.97,3225.51,2916.32,3305.68,599.89,607.12,14.62,0000 0000 0000 0000 000000
2016-03-04 06:28:37,0.03,0.85,0.00,20.60,25.00,28.65,14.83,49.08,1027.36,2043.96,3224.67,2915.74,3304.92,599.90,607.12,14.67,0000 0000 0000 0000 000000
2016-03-04 06:33:38,0.03,0.85,0.00,20.63,25.02,28.71,14.91,49.19,1027.36,2043.92,3223.91,2915.03,3304.08,600.04,607.32,14.72,0000 0000 0000 0000 000000
2016-03-04 06:38:40,0.04,0.85,0.00,20.65,25.03,28.71,14.82,49.12,1027.38,2043.83,3223.03,2914.39,3303.39,599.86,607.05,14.77,0000 0000 0000 0000 000000
2016-03-04 06:43:41,-0.00,0.85,0.00,20.67,25.05,28.74,14.76,48.98,1027.59,2043.48,3222.13,2913.92,3302.66,599.77,606.99,14.82,0000 0000 0000 0000 000000
2016-03-04 06:48:42,0.02,0.85,0.00,20.68,25.06,28.76,14.95,49.12,1027.76,2043.14,3221.36,2913.12,3301.92,600.08,607.44,14.87,0000 0000 0000 0000 000000
2016-03-04 06:53:43,0.05,0.86,0.00,20.71,25.07,28.76,14.86,49.08,1027.81,2043.04,3220.44,2912.55,3301.08,600.05,607.41,14.92,0000 0000 0000 0000 000000
2016-03-04 06:58:44,0.03,0.86,0.00,20.73,25.09,28.80,14.83,49.02,1027.85,2043.01,3219.56,2912.00,3300.40,600.04,607.17,14.97,0000 0000 0000 0000 000000
2016-03-04 07:03:45,0.03,0.86,0.00,20.75,25.11,28.80,14.91,49.01,1027.85,2043.00,3218.87,2911.41,3299.91,600.00,607.34,15.02,0000 0000 0000 0000 000000
2016-03-04 07:08:47,0.05,0.86,0.00,20.77,25.12,28.83,14.91,49.02,1027.85,2043.01,3217.87,2910.75,3299.04,600.09,607.24,15.07,0000 0000 0000 0000 000000
2016-03-04 07:13:48,0.04,0.87,0.00,20.80,25.14,28.87,14.74,49.09,1027.85,2043.00,3217.01,2910.02,3298.17,599.86,606.93,15.12,0000 0000 0000 0000 000000
2016-03-04 07:18:49,0.04,0.87,0.00,20.82,25.16,28.89,14.84,49.09,1027.86,2043.00,3216.20,2909.45,3297.64,599.57,606.73,15.17,0000 0000 0000 0000 000000
2016-03-04 07:23:51,0.03,0.87,0.00,20.85,25.17,28.91,14.84,49.07,1027.86,2042.99,3215.38,2908.89,3296.87,600.08,607.05,15.22,0000 0000 0000 0000 000000
2016-03-04 07:28:52,0.05,0.87,0.00,20.87,25.20,28.91,14.88,49.08,1027.86,2042.98,3214.51,2908.08,3296.05,599.91,606.87,15.27,0000 0000 0000 0000 000000
2016-03-04 07:33:53,0.04,0.87,0.00,20.90,25.22,28.95,14.87,49.13,1027.89,2042.96,3213.70,2907.61,3295.33,600.12,607.03,15.32,0000 0000 0000 0000 000000
2016-03-04 07:38:54,0.02,0.88,0.00,20.90,25.24,28.95,14.82,49.04,1027.95,2042.96,3212.94,2907.00,3294.72,599.65,606.70,15.37,0000 0000 0000 0000 000000
2016-03-04 07:43:56,0.03,0.88,0.00,20.92,25.25,28.94,14.86,49.18,1028.08,2042.85,3212.08,2906.44,3293.99,600.03,607.11,15.42,0000 0000 0000 0000 000000
2016-03-04 07:48:57,0.01,0.88,0.00,20.92,25.27,28.97,14.86,49.19,1028.30,2042.39,3211.17,2905.94,3293.15,600.15,607.22,15.47,0000 0000 0000 0000 000000
2016-03-04 07:53:58,0.01,0.88,0.00,20.94,25.29,29.02,14.87,49.27,1028.33,2042.14,3210.46,2905.15,3292.60,599.94,607.04,15.52,0000 0000 0000 0000 000000
2016-03-04 07:59:00,0.03,0.88,0.00,20.98,25.31,29.02,14.78,49.06,1028.33,2042.07,3209.70,2904.71,3291.94,599.83,606.89,15.57,0000 0000 0000 0000 000000
2016-03-04 08:04:01,0.03,0.88,0.00,21.00,25.32,29.08,14.87,48.99,1028.35,2042.01,3208.84,2904.02,3291.12,600.03,606.93,15.62,0000 0000 0000 0000 000000
2016-03-04 08:09:03,0.05,0.88,0.00,21.03,25.35,29.03,14.86,48.97,1028.36,2042.00,3208.05,2903.43,3290.51,600.06,607.03,15.67,0000 0000 0000 0000 000000
2016-03-04 08:14:04,0.02,0.89,0.00,21.04,25.37,29.08,14.88,48.89,1028.44,2042.00,3207.25,2902.97,3289.92,599.94,606.89,15.72,0000 0000 0000 0000 000000
2016-03-04 08:19:05,0.05,0.89,0.00,21.05,25.38,29.08,14.82,49.01,1028.69,2042.00,3206.47,2902.17,3289.09,600.04,607.16,15.77,0000 0000 0000 0000 000000
2016-03-04 08:24:07,0.04,0.89,0.00,21.08,25.40,29.15,14.83,48.87,1028.77,2042.00,3205.64,2901.78,3288.48,599.84,606.94,15.82,0000 0000 0000 0000 000000
2016-03-04 08:29:08,0.03,0.89,0.00,21.11,25.42,29.18,14.82,48.93,1028.82,2041.98,3204.91,2901.04,3287.89,599.57,606.68,15.87,0000 0000 0000 0000 000000
2016-03-04 08:34:09,0.04,0.89,0.00,21.13,25.45,29.14,14.80,48.97,1028.82,2041.93,3204.06,2900.47,3287.06,599.95,606.99,15.92,0000 0000 0000 0000 000000
2016-03-04 08:39:10,0.02,0.90,0.00,21.14,25.46,29.16,14.78,48.85,1028.82,2041.75,3203.20,2899.97,3286.23,600.04,607.05,15.97,0000 0000 0000 0000 000000
2016-03-04 08:44:12,0.02,0.90,0.00,21.14,25.48,29.20,14.79,48.82,1028.83,2041.54,3202.52,2899.25,3285.80,599.92,607.01,16.02,0000 0000 0000 0000 000000
2016-03-04 08:49:13,-0.00,0.90,0.00,21.16,25.50,29.25,14.82,48.88,1028.83,2041.19,3201.76,2898.89,3285.04,599.83,606.86,16.07,0000 0000 0000 0000 000000
2016-03-04 08:54:14,0.04,0.90,0.00,21.17,25.52,29.28,14.88,48.95,1028.83,2041.09,3200.98,2898.11,3284.51,600.22,607.02,16.12,0000 0000 0000 0000 000000
2016-03-04 08:59:15,0.02,0.90,0.00,21.17,25.53,29.24,14.86,48.92,1028.83,2041.06,3200.16,2897.87,3283.98,599.68,606.55,16.17,0000 0000 0000 0000 000000
2016-03-04 09:04:17,0.05,0.90,0.00,21.18,25.55,29.27,14.76,48.83,1028.85,2041.03,3199.37,2897.06,3283.18,599.66,606.68,16.22,0000 0000 0000 0000 000000
2016-03-04 09:09:18,0.02,0.90,0.00,21.17,25.56,29.28,14.84,48.88,1028.88,2041.00,3198.93,2896.77,3282.77,599.87,606.85,16.27,0000 0000 0000 0000 000000
2016-03-04 09:14:19,0.03,0.91,0.00,21.19,25.57,29.27,14.82,48.88,1029.18,2041.00,3198.11,2896.04,3282.04,599.68,606.76,16.32,0000 0000 0000 0000 000000
2016-03-04 09:19:21,0.03,0.91,0.00,21.20,25.59,29.29,14.87,48.94,1029.31,2041.00,3197.54,2895.89,3281.60,599.92,607.09,16.37,0000 0000 0000 0000 000000
2016-03-04 09:24:22,0.03,0.91,0.00,21.21,25.60,29.32,14.85,48.83,1029.31,2041.00,3197.00,2895.11,3281.01,600.38,607.47,16.42,0000 0000 0000 0000 000000
2016-03-04 09:29:23,0.03,0.91,0.00,21.23,25.62,29.32,14.77,48.84,1029.31,2041.00,3196.20,2894.91,3280.55,600.00,607.10,16.47,0000 0000 0000 0000 000000
2016-03-04 09:34:25,0.04,0.91,0.00,21.22,25.64,29.32,14.87,48.86,1029.31,2041.00,3195.57,2894.10,3279.92,599.85,606.91,16.52,0000 0000 0000 0000 000000
2016-03-04 09:39:26,0.02,0.91,0.00,21.24,25.65,29.36,14.93,48.91,1029.31,2040.98,3194.87,2893.87,3279.11,600.30,607.39,16.57,0000 0000 0000 0000 000000
2016-03-04 09:44:28,0.04,0.92,0.00,21.26,25.67,29.36,14.75,48.74,1029.32,2040.98,3194.01,2893.09,3278.64,599.81,606.89,16.62,0000 0000 0000 0000 000000
2016-03-04 09:49:29,0.03,0.92,0.00,21.27,25.68,29.39,14.80,48.87,1029.33,2040.94,3193.14,2892.62,3277.95,599.73,606.77,16.67,0000 0000 0000 0000 000000
2016-03-04 09:54:31,0.01,0.92,0.00,21.31,25.70,29.42,14.87,48.80,1029.33,2040.65,3192.23,2891.90,3277.07,600.05,607.00,16.73,0000 0000 0000 0000 000000
2016-03-04 09:59:32,0.03,0.92,0.00,21.34,25.72,29.42,14.87,48.87,1029.34,2040.39,3191.30,2891.07,3276.15,600.04,607.02,16.78,0000 0000 0000 0000 000000
2016-03-04 10:04:33,0.05,0.92,0.00,21.34,25.73,29.45,14.86,49.07,1029.33,2040.24,3190.25,2890.46,3275.45,600.05,606.93,16.83,0000 0000 0000 0000 000000
2016-03-04 10:09:34,0.03,0.92,0.00,21.37,25.75,29.47,14.92,49.09,1029.32,2040.10,3189.29,2889.82,3274.60,600.22,607.05,16.88,0000 0000 0000 0000 000000
2016-03-04 10:14:35,0.04,0.93,0.00,21.37,25.76,29.47,14.84,48.88,1029.31,2040.04,3188.37,2889.03,3273.78,600.14,606.94,16.93,0000 0000 0000 0000 000000
2016-03-04 10:19:37,0.04,0.93,0.00,21.38,25.77,29.47,14.88,48.84,1029.32,2040.01,3187.36,2888.29,3272.97,600.21,607.01,16.98,0000 0000 0000 0000 000000
2016-03-04 10:24:38,0.05,0.93,0.00,21.38,25.80,29.51,14.85,48.77,1029.33,2040.01,3186.39,2887.68,3272.12,600.26,606.94,17.03,0000 0000 0000 0000 000000
2016-03-04 10:29:39,0.04,0.93,0.00,21.39,25.80,29.51,14.86,48.86,1029.44,2040.00,3185.32,2886.92,3271.30,599.90,606.72,17.08,0000 0000 0000 0000 000000
2016-03-04 10:34:40,0.05,0.94,0.00,21.44,25.82,29.52,14.77,48.72,1029.66,2040.00,3184.27,2886.08,3270.37,599.73,606.61,17.13,0000 0000 0000 0000 000000
2016-03-04 10:39:41,0.05,0.94,0.00,21.44,25.82,29.54,14.84,48.78,1029.79,2040.00,3183.31,2885.45,3269.67,599.91,607.05,17.18,0000 0000 0000 0000 000000
2016-03-04 10:44:43,0.05,0.94,0.00,21.45,25.85,29.56,14.84,48.94,1029.80,2040.00,3182.23,2884.74,3268.80,599.59,606.61,17.23,0000 0000 0000 0000 000000
2016-03-04 10:49:44,0.04,0.94,0.00,21.46,25.86,29.55,14.93,48.83,1029.80,2040.00,3181.21,2883.99,3267.88,600.10,607.01,17.28,0000 0000 0000 0000 000000
2016-03-04 10:54:45,0.05,0.95,0.00,21.48,25.87,29.55,14.88,48.79,1029.80,2039.99,3180.16,2883.16,3266.98,600.28,607.15,17.33,0000 0000 0000 0000 000000
2016-03-04 10:59:46,0.06,0.95,0.00,21.49,25.87,29.60,14.90,49.05,1029.80,2039.98,3178.98,2882.35,3266.06,599.94,606.73,17.38,0000 0000 0000 0000 000000
2016-03-04 11:04:48,0.06,0.95,0.00,21.49,25.90,29.60,14.93,48.99,1029.80,2039.97,3177.83,2881.56,3265.14,600.01,606.90,17.43,0000 0000 0000 0000 000000
2016-03-04 11:09:49,0.03,0.96,0.00,21.51,25.91,29.62,14.84,48.82,1029.80,2039.96,3176.88,2880.93,3264.28,600.17,607.01,17.48,0000 0000 0000 0000 000000
2016-03-04 11:14:50,0.05,0.96,0.00,21.54,25.92,29.65,14.85,48.92,1029.80,2039.92,3175.88,2880.09,3263.43,600.00,606.81,17.53,0000 0000 0000 0000 000000
2016-03-04 11:19:51,0.04,0.96,0.00,21.54,25.95,29.64,14.81,48.85,1029.80,2039.77,3174.72,2879.29,3262.68,599.86,606.54,17.58,0000 0000 0000 0000 000000
2016-03-04 11:24:53,0.02,0.96,0.00,21.55,25.96,29.66,14.81,48.83,1029.80,2039.70,3173.72,2878.84,3261.88,599.95,606.67,17.63,0000 0000 0000 0000 000000
2016-03-04 11:29:54,0.02,0.96,0.00,21.58,25.97,29.70,14.80,48.91,1029.80,2039.41,3172.72,2878.04,3261.01,599.80,606.43,17.68,0000 0000 0000 0000 000000
2016-03-04 11:34:55,0.04,0.96,0.00,21.60,25.98,29.65,14.84,48.98,1029.80,2039.12,3171.55,2877.23,3260.10,599.91,606.58,17.73,0000 0000 0000 0000 000000
2016-03-04 11:39:56,0.05,0.97,0.00,21.62,26.00,29.70,14.80,48.88,1029.80,2039.02,3170.48,2876.53,3259.24,599.92,606.49,17.78,0000 0000 0000 0000 000000
2016-03-04 11:44:58,0.04,0.97,0.00,21.64,26.01,29.71,14.77,48.92,1029.80,2039.04,3169.45,2875.85,3258.41,599.78,606.32,17.83,0000 0000 0000 0000 000000
2016-03-04 11:49:59,0.05,0.97,0.00,21.65,26.02,29.74,14.88,48.83,1029.81,2039.02,3168.45,2875.02,3257.53,600.25,606.79,17.88,0000 0000 0000 0000 000000
2016-03-04 11:55:01,0.05,0.97,0.00,21.68,26.05,29.78,14.84,48.86,1029.81,2039.00,3167.41,2874.20,3256.68,600.02,606.53,17.93,0000 0000 0000 0000 000000
2016-03-04 12:00:02,0.06,0.98,0.00,21.69,26.06,29.77,14.85,48.98,1029.81,2039.00,3166.30,2873.47,3255.75,600.15,606.51,17.98,0000 0000 0000 0000 000000
2016-03-04 12:05:03,0.03,0.98,0.00,21.71,26.07,29.76,14.85,48.74,1029.80,2039.00,3165.18,2872.84,3254.87,600.16,606.62,18.03,0000 0000 0000 0000 000000
2016-03-04 12:10:05,0.06,0.98,0.00,21.72,26.10,29.76,14.86,48.86,1029.82,2039.00,3164.11,2871.99,3253.94,600.16,606.53,18.08,0000 0000 0000 0000 000000
2016-03-04 12:15:06,0.05,0.99,0.00,21.72,26.11,29.83,14.88,48.93,1029.81,2038.98,3163.02,2871.13,3253.02,600.12,606.59,18.13,0000 0000 0000 0000 000000
2016-03-04 12:20:07,0.06,0.99,0.00,21.73,26.12,29.85,14.83,48.86,1029.81,2038.97,3161.91,2870.36,3252.11,600.07,606.51,18.18,0000 0000 0000 0000 000000
2016-03-04 12:25:09,0.04,0.99,0.00,21.76,26.15,29.84,14.80,48.73,1029.81,2038.88,3160.82,2869.59,3251.10,600.14,606.49,18.23,0000 0000 0000 0000 000000
2016-03-04 12:30:10,0.03,0.99,0.00,21.79,26.16,29.84,14.75,48.69,1029.83,2038.64,3159.71,2868.79,3250.11,599.79,606.06,18.28,0000 0000 0000 0000 000000
2016-03-04 12:35:11,0.02,1.00,0.00,21.80,26.18,29.87,14.83,48.67,1029.90,2038.34,3158.62,2868.00,3249.24,599.84,606.20,18.33,0000 0000 0000 0000 000000
2016-03-04 12:40:12,0.04,1.00,0.00,21.84,26.20,29.87,14.82,48.76,1030.18,2038.13,3157.54,2867.17,3248.39,599.91,606.34,18.38,0000 0000 0000 0000 000000
2016-03-04 12:45:13,0.05,1.00,0.00,21.84,26.22,29.91,14.78,48.85,1030.19,2038.03,3156.42,2866.36,3247.41,599.65,605.98,18.43,0000 0000 0000 0000 000000
2016-03-04 12:50:15,0.06,1.00,0.00,21.84,26.23,29.92,14.86,48.84,1030.16,2038.00,3155.27,2865.53,3246.43,600.15,606.50,18.48,0000 0000 0000 0000 000000
2016-03-04 12:55:16,0.06,1.00,0.00,21.87,26.25,29.93,14.80,48.73,1030.24,2038.00,3154.03,2864.70,3245.45,600.02,606.36,18.53,0000 0000 0000 0000 000000